TimeEDT,TemperatureF,Dew PointF,Humidity,Sea Level PressureIn,VisibilityMPH,Wind Direction,Wind SpeedMPH,Gust SpeedMPH,PrecipitationIn,Events,Conditions,WindDirDegrees,DateUTC
12:53 AM,55.0,30.9,40,30.02,10.0,Variable,4.6,-,N/A,,Scattered Clouds,0,2013-03-11 04:53:00
1:53 AM,57.0,33.1,40,29.99,10.0,SSE,13.8,23.0,N/A,,Clear,150,2013-03-11 05:53:00
2:53 AM,55.9,34.0,44,29.99,10.0,SSE,5.8,-,N/A,,Clear,160,2013-03-11 06:53:00
3:53 AM,55.9,36.0,47,29.95,10.0,South,13.8,19.6,N/A,,Clear,170,2013-03-11 07:53:00
4:53 AM,55.0,37.0,51,29.93,10.0,SSE,8.1,-,N/A,,Scattered Clouds,150,2013-03-11 08:53:00
5:53 AM,55.0,39.0,55,29.92,10.0,SSE,10.4,-,N/A,,Mostly Cloudy,150,2013-03-11 09:53:00
6:53 AM,55.9,41.0,57,29.92,10.0,South,11.5,19.6,N/A,,Mostly Cloudy,170,2013-03-11 10:53:00
7:53 AM,55.9,43.0,62,29.95,10.0,South,9.2,-,N/A,,Overcast,190,2013-03-11 11:53:00
8:53 AM,55.9,43.0,62,29.94,10.0,SSE,8.1,-,N/A,,Overcast,150,2013-03-11 12:53:00
9:53 AM,55.9,44.1,64,29.92,10.0,ESE,10.4,-,N/A,,Overcast,120,2013-03-11 13:53:00
10:53 AM,57.0,45.0,64,29.91,10.0,SSE,10.4,16.1,N/A,,Overcast,150,2013-03-11 14:53:00
11:53 AM,59.0,45.0,60,29.90,10.0,South,9.2,20.7,N/A,,Overcast,180,2013-03-11 15:53:00
12:53 PM,57.9,45.0,62,29.90,10.0,SE,10.4,-,N/A,,Overcast,140,2013-03-11 16:53:00
1:53 PM,57.9,46.0,65,29.86,10.0,SE,6.9,-,N/A,,Overcast,140,2013-03-11 17:53:00
2:53 PM,59.0,45.0,60,29.81,10.0,SSE,10.4,-,N/A,,Overcast,150,2013-03-11 18:53:00
3:53 PM,57.0,45.0,64,29.79,10.0,SE,13.8,23.0,N/A,,Mostly Cloudy,140,2013-03-11 19:53:00
4:53 PM,57.0,45.0,64,29.80,10.0,SSE,6.9,-,0.00,,Overcast,150,2013-03-11 20:53:00
5:39 PM,53.1,50.0,89,29.87,1.8,WSW,6.9,-,0.05,Rain,Heavy Rain,250,2013-03-11 21:39:00
5:53 PM,53.1,50.0,89,29.83,2.0,West,8.1,-,0.11,Rain,Rain,280,2013-03-11 21:53:00
6:35 PM,53.1,51.1,93,29.87,4.0,SW,6.9,-,0.13,Rain,Rain,220,2013-03-11 22:35:00
6:53 PM,52.0,51.1,97,29.83,4.0,SSE,4.6,-,0.17,Rain,Rain,150,2013-03-11 22:53:00
7:53 PM,51.1,50.0,96,29.85,3.0,Calm,Calm,-,0.18,Rain,Heavy Rain,0,2013-03-11 23:53:00
8:04 PM,51.1,50.0,96,29.89,3.0,South,3.5,-,0.03,Rain,Rain,170,2013-03-12 00:04:00
8:53 PM,51.1,50.0,96,29.82,4.0,ESE,8.1,-,0.10,Rain,Light Rain,110,2013-03-12 00:53:00
9:49 PM,51.8,48.2,88,29.84,10.0,WNW,6.9,-,0.03,,Overcast,290,2013-03-12 01:49:00
9:53 PM,52.0,48.9,89,29.81,10.0,WNW,8.1,-,0.03,,Overcast,290,2013-03-12 01:53:00
10:05 PM,52.0,48.9,89,29.84,10.0,NNW,4.6,-,0.00,Rain,Light Rain,340,2013-03-12 02:05:00
10:18 PM,51.1,48.9,92,29.83,10.0,NW,3.5,-,0.00,Rain,Light Rain,320,2013-03-12 02:18:00
10:53 PM,51.1,48.9,92,29.79,10.0,Calm,Calm,-,0.00,,Overcast,0,2013-03-12 02:53:00
11:53 PM,51.1,48.9,92,29.79,10.0,Calm,Calm,-,N/A,,Overcast,0,2013-03-12 03:53:00